Volver al catálogo

STARLINK-35147

ActivoComunicacionesVLEO
NORAD 65637·PAYLOAD·🇺🇸 United States

Lanzado Sep 18, 2025 desde Cape Canaveral Space Force Station

Loading…

Próximos Pases (próximas 24 horas)

TLE

ActualizadoSource: CelesTrak SupGP

Época: Sep 15, 2026, 04:06 UTC

1 65637C 25210R   26258.17131944  .00055808  00000+0  16493-2 0  2588
2 65637  53.1563 142.6813 0000875  82.2555 215.1024 15.34354407    16

Sigue STARLINK-35147 en tiempo real con AllMySat

Download on the App Store